[[{"header":{"parameterUnit":"m.s-1","parameterCategory":1,"la1":30.2992,"la2":30.254,"lo1":-89.0895,"lo2":-89.0443,"dy":0.0025,"dx":0.0025,"nx":19,"ny":19,"refTime":"2026-05-05T21:00:00:Z","depth":0,"parameterNumber":2,"parameterNumberName":"U-component_of_WINDS"},"data":[0,0,0,-0.9819,-0.9819,-0.9823,-0.9823,-0.9827,-0.9827,0,0,0,0,0,0,0,0,0,0,0,-0.9816,-0.9816,-0.9819,-0.9819,-0.9823,-0.9823,-0.9827,-0.9827,0,0,0,0,0,0,0,0,0,0,0,-0.9816,-0.9816,-0.9816,-0.9819,-0.9823,-0.9823,-0.9827,-0.9824,0,0,0,0,0,0,0,0,0,0,-0.982,-0.9816,-0.9816,-0.9816,-0.9819,-0.9823,-0.9823,-0.9824,-0.9825,-0.9824,0,-0.9822,0,-0.9825,-0.9827,-0.9827,0,0,0,-0.982,-0.9815,-0.9818,-0.9816,-0.9819,-0.9823,-0.9822,-0.9824,-0.9825,-0.9824,-0.9822,-0.9823,-0.9825,-0.9827,-0.9827,-0.9818,-0.9818,0,0,-0.982,-0.9815,-0.9818,-0.9818,-0.9817,-0.9822,-0.9822,-0.9825,-0.9822,-0.9822,-0.9823,-0.9825,-0.9827,-0.9827,-0.9818,-0.9818,0,0,0,-0.9818,-0.9815,-0.9818,-0.9818,-0.9819,-0.9822,-0.9822,-0.9822,-0.9824,-0.9823,-0.9825,-0.9827,-0.9827,-0.9819,-0.9818,-0.9809,0,0,0,-0.9818,-0.9814,-0.9818,-0.9815,-0.9819,-0.9821,-0.982,-0.9824,-0.9824,-0.9825,-0.9827,-0.9827,-0.9819,-0.9819,-0.9809,-0.9805,0,0,0,-0.9816,-0.9814,-0.9814,-0.9815,-0.9817,-0.9821,-0.9822,-0.9824,-0.9825,-0.9827,-0.9827,-0.9819,-0.9819,-0.981,-0.9805,-0.9801,0,0,0,-0.9812,-0.9805,-0.9814,-0.9807,-0.9817,-0.9815,-0.9822,-0.9821,-0.9822,-0.9827,-0.9819,-0.9818,-0.981,-0.9806,-0.9802,-0.9796,-0.9794,0,0,-0.98,-0.9803,-0.98,-0.9808,-0.9803,-0.9815,-0.9809,-0.9814,-0.9818,-0.9818,-0.9818,-0.9809,-0.9805,-0.9801,-0.9782,-0.978,0,0,0,-0.9794,-0.9791,-0.9791,-0.9792,-0.9796,-0.9799,-0.9805,-0.9807,-0.9807,-0.9817,-0.9807,-0.9805,-0.9803,-0.98,-0.9799,-0.9797,-0.9817,-0.9817,-0.9817,-0.977,-0.9777,-0.9771,-0.9779,-0.978,-0.9787,-0.9788,-0.9792,-0.9798,-0.9796,-0.9795,-0.9783,-0.978,-0.9779,-0.9777,-0.9794,-0.9794,-0.9794,-0.9794,-0.9753,-0.975,-0.976,-0.9758,-0.9766,-0.9764,-0.9772,-0.9777,-0.9777,-0.9784,-0.9782,-0.9788,-0.9777,-0.9776,-0.9793,-0.9793,-0.9793,-0.9793,-0.9793,-0.9737,-0.9737,-0.974,-0.9743,-0.9744,-0.9753,-0.9753,-0.976,-0.9766,-0.9765,-0.9766,-0.9766,-0.9767,-0.9765,-0.9765,-0.9765,-0.9765,-0.9765,-0.9765,-0.9719,-0.9723,-0.9722,-0.9727,-0.9729,-0.9733,-0.9742,-0.9744,-0.9748,-0.9753,-0.9754,-0.976,-0.9775,-0.9778,-0.9764,-0.9764,-0.9764,-0.9764,-0.9765,-0.9697,-0.9704,-0.9702,-0.9704,-0.9712,-0.9713,-0.9723,-0.9728,-0.9731,-0.9731,-0.9739,-0.9748,-0.9752,-0.9753,-0.9756,-0.9737,-0.9737,-0.9737,-0.9737,-0.9683,-0.9686,-0.9687,-0.969,-0.9694,-0.9704,-0.9703,-0.9711,-0.972,-0.9722,-0.9727,-0.9731,-0.9732,-0.9735,-0.9737,-0.9739,-0.9717,-0.9717,-0.9717,-0.967,-0.9674,-0.9671,-0.9681,-0.9688,-0.9694,-0.9693,-0.9697,-0.9709,-0.9716,-0.9725,-0.9726,-0.9733,-0.9735,-0.974,-0.9743,-0.9748,0,0]},{"header":{"parameterUnit":"m.s-1","parameterCategory":1,"la1":30.2992,"la2":30.254,"lo1":-89.0895,"lo2":-89.0443,"dy":0.0025,"dx":0.0025,"nx":19,"ny":19,"refTime":"2026-05-05T21:00:00:Z","depth":0,"parameterNumber":3,"parameterNumberName":"V-component_of_WINDS"},"data":[0,0,0,5.6577,5.6578,5.6663,5.6663,5.6763,5.6764,0,0,0,0,0,0,0,0,0,0,0,5.655,5.6551,5.6576,5.6579,5.6663,5.6663,5.6763,5.6764,0,0,0,0,0,0,0,0,0,0,0,5.655,5.655,5.6551,5.6579,5.6662,5.6663,5.6763,5.6701,0,0,0,0,0,0,0,0,0,0,5.662,5.6595,5.655,5.6551,5.6579,5.6662,5.6663,5.6698,5.6705,5.6723,0,5.6741,0,5.6754,5.6771,5.6771,0,0,0,5.6579,5.6589,5.6614,5.6551,5.658,5.6662,5.6625,5.6702,5.671,5.6732,5.6742,5.6746,5.6756,5.6771,5.6772,5.688,5.688,0,0,5.6574,5.6563,5.6609,5.6619,5.6609,5.6622,5.6627,5.6707,5.6716,5.6743,5.6748,5.6758,5.6772,5.6773,5.6879,5.688,0,0,0,5.6561,5.656,5.6583,5.6615,5.6631,5.6624,5.6631,5.6713,5.6721,5.675,5.6759,5.6772,5.6774,5.6879,5.688,5.6895,0,0,0,5.6558,5.6552,5.6581,5.6575,5.6629,5.6673,5.6635,5.6716,5.6725,5.6758,5.6772,5.6774,5.6878,5.6879,5.6893,5.6903,0,0,0,5.6545,5.6551,5.6563,5.6574,5.661,5.6672,5.6685,5.6718,5.6731,5.6771,5.6775,5.6878,5.6879,5.6892,5.6901,5.6929,0,0,0,5.6527,5.6573,5.6563,5.6617,5.661,5.6682,5.6685,5.6739,5.6775,5.6773,5.6878,5.6879,5.6891,5.6899,5.6927,5.6951,5.696,0,0,5.6579,5.6579,5.6612,5.6605,5.6677,5.667,5.6743,5.6785,5.6796,5.6851,5.6853,5.6894,5.6901,5.6929,5.7014,5.7021,0,0,0,5.6624,5.6648,5.6669,5.6705,5.674,5.677,5.6803,5.6818,5.6866,5.6823,5.6912,5.6916,5.6933,5.6945,5.6951,5.6966,5.6885,5.6884,5.6884,5.6681,5.6697,5.6752,5.6778,5.6812,5.6846,5.6875,5.6901,5.6904,5.6925,5.6941,5.6991,5.7005,5.7009,5.7025,5.6955,5.6955,5.6955,5.6955,5.6758,5.6794,5.68,5.6856,5.6872,5.6918,5.6952,5.6953,5.6997,5.698,5.6996,5.6976,5.7017,5.7031,5.6956,5.6956,5.6956,5.6956,5.6956,5.6797,5.6817,5.6837,5.6891,5.693,5.6954,5.6997,5.7008,5.7019,5.7035,5.7053,5.7053,5.7054,5.7043,5.7043,5.7043,5.7043,5.7043,5.7043,5.6829,5.6852,5.6888,5.693,5.6955,5.6989,5.7024,5.7048,5.7077,5.7082,5.7082,5.7083,5.7018,5.7002,5.7046,5.7046,5.7045,5.7045,5.7045,5.6902,5.6888,5.6944,5.6969,5.702,5.7058,5.7073,5.7121,5.7142,5.7162,5.7161,5.7111,5.7111,5.7106,5.7092,5.7158,5.7158,5.7158,5.7158,5.6935,5.6937,5.6998,5.7037,5.7077,5.7097,5.7157,5.7185,5.721,5.7223,5.7216,5.7199,5.7193,5.7196,5.719,5.7177,5.7262,5.7262,5.7262,5.6981,5.6987,5.7038,5.7066,5.7106,5.714,5.7197,5.724,5.7266,5.7267,5.7234,5.723,5.7203,5.7193,5.7193,5.7182,5.716,0,0]}]]